Flag for Sweden Weather past 2 weeks in Malmö, Sweden

Now
54 °F

Passing clouds.


Feels Like: 53 °F
Forecast: 54 / 58 °F
Wind: 5 mph from Northwest

Location: Malmo / Sturup

Current Time: Sep 23, 2014 at 5:17:54 PM

Latest Report: Sep 23, 2014 at 4:50 PM


Visibility: N/A

Pressure: 30.04 "Hg

Humidity: 38%

Dew point: 28 °F

Location of MalmöLocation

Historic Weather in Malmö — Graph

°F

Malmö temperature yesterday

Maximum temperature yesterday: 54 °F (at 12:20 AM)
Minimum temperature yesterday: 43 °F (at 11:20 PM)
Average temperature yesterday: 50 °F

Past Weeks' High & Low Weather Summary

 TemperatureHumidityPressure
High70 °F (Sep 19, 1:20 PM)100% (Sep 9, 9:50 PM)30.27 "Hg (Sep 9, 9:50 PM)
Low34 °F (Sep 23, 5:50 AM)44% (Sep 23, 1:50 PM)29.65 "Hg (Sep 22, 1:50 AM)
Average58 °F85%30.06 "Hg
* Reported Sep 8 4:20 PM — Sep 23 4:20 PM, Malmö, Weather by CustomWeather, © 2014

Note: Actual official high and low records may vary slightly from our data, if they occured in-between our weather recording intervals... More about our weather records

Advertising

Malmö weather history for previous 24 hours

 ConditionsComfort  
Time TempWeatherWind HumidityBarometerVisibility
4:20 PM
Sep 23
54 °FPassing clouds.6 mph44%30.04 "HgN/A
3:50 PM54 °FPassing clouds.6 mph47%30.04 "HgN/A
3:20 PM54 °FSunny.3 mph47%30.07 "Hg10 mi
2:50 PM54 °FPassing clouds.5 mph44%30.07 "HgN/A
2:20 PM52 °FPassing clouds.6 mph47%30.07 "HgN/A
1:50 PM52 °FPassing clouds.5 mph44%30.07 "HgN/A
1:20 PM52 °FPassing clouds.5 mph50%30.07 "HgN/A
12:20 PM50 °FPassing clouds.7 mph50%30.07 "HgN/A
11:50 AM50 °FSunny.7 mph47%30.07 "Hg10 mi
11:20 AM50 °FSunny.7 mph50%30.07 "Hg10 mi
10:50 AM48 °FSunny.7 mph54%30.07 "Hg10 mi
10:20 AM46 °FSunny.7 mph66%30.07 "Hg10 mi
9:20 AM43 °FSunny.5 mph76%30.04 "Hg10 mi
8:20 AM39 °FSunny.5 mph81%30.04 "Hg10 mi
7:20 AM36 °FClear.6 mph87%30.04 "Hg10 mi
6:50 AM36 °FClear.6 mph87%30.04 "Hg10 mi
6:20 AM36 °FClear.6 mph87%30.01 "Hg10 mi
5:50 AM34 °FClear.7 mph93%30.01 "Hg10 mi
5:20 AM36 °FClear.10 mph93%30.01 "Hg10 mi
4:50 AM36 °FClear.12 mph93%30.01 "Hg10 mi
4:20 AM36 °FClear.10 mph93%29.98 "Hg10 mi
3:50 AM39 °FClear.9 mph81%29.98 "Hg10 mi
3:20 AM39 °FClear.9 mph81%29.98 "Hg10 mi
2:20 AM39 °FClear.9 mph81%29.98 "Hg10 mi
1:20 AM41 °FClear.9 mph81%29.98 "Hg10 mi
12:50 AM41 °FClear.10 mph81%29.98 "Hg10 mi
12:20 AM41 °FClear.10 mph87%29.95 "Hg10 mi
11:50 PM
Sep 22
43 °FClear.10 mph81%29.95 "Hg10 mi
11:20 PM43 °FClear.12 mph81%29.95 "Hg10 mi
10:50 PM45 °FClear.13 mph81%29.95 "Hg10 mi
10:20 PM45 °FClear.13 mph81%29.92 "Hg10 mi
9:50 PM46 °FClear.14 mph76%29.92 "Hg10 mi
9:20 PM48 °FPassing clouds.15 mph76%29.92 "HgN/A
8:50 PM48 °FPassing clouds.16 mph76%29.89 "HgN/A
8:20 PM48 °FPassing clouds.16 mph76%29.89 "HgN/A
7:50 PM48 °FPartly sunny.16 mph82%29.86 "HgN/A
7:20 PM48 °FBroken clouds.18 mph82%29.86 "HgN/A
6:50 PM50 °FBroken clouds.20 mph71%29.86 "HgN/A
6:20 PM50 °FPartly sunny.17 mph76%29.83 "HgN/A
5:50 PM50 °FPartly sunny.18 mph82%29.80 "HgN/A
5:20 PM52 °FPartly sunny.17 mph72%29.80 "HgN/A
Weather by CustomWeather, © 2014

See weather overviewHow to use our weather pages